• In Portugal
  • List of Countries
  • For 7 days
  • Water Temperature
  • Satellite Maps
  • Weather Map
  • Weather Widgets
  • user-avatar
    Login

    Hourly Weather Trinidad

    Today, 18 September, Tuesday

    Time Temperature Precipitation Wind Pressure Humidity
    00:00 +28°C° 0.7 mm 1 mps 743 mmHg 77%
    01:00 +27°C° 0.7 mm 1 mps 743 mmHg 81%
    02:00 +27°C° 0 mm 1 mps 743 mmHg 81%
    03:00 +27°C° 1 mm 1 mps 743 mmHg 83%
    04:00 +26°C° 1 mm 1 mps 743 mmHg 85%
    05:00 +24°C° 1 mm 0 mps 743 mmHg 88%
    06:00 +25°C° 0.2 mm 0 mps 743 mmHg 85%
    07:00 +25°C° 0.2 mm 0 mps 744 mmHg 83%
    08:00 +26°C° 0 mm 0 mps 744 mmHg 81%
    09:00 +30°C° 0.1 mm 1 mps 744 mmHg 72%
    10:00 +31°C° 0.1 mm 2 mps 744 mmHg 62%
    11:00 +34°C° 0.1 mm 3 mps 744 mmHg 52%
    12:00 +35°C° 0.1 mm 4 mps 744 mmHg 49%
    13:00 +36°C° 0.1 mm 4 mps 743 mmHg 45%
    14:00 +37°C° 0.1 mm 4 mps 742 mmHg 41%
    15:00 +36°C° 0 mm 4 mps 742 mmHg 42%
    16:00 +36°C° 0 mm 4 mps 741 mmHg 42%
    17:00 +36°C° 0 mm 3 mps 740 mmHg 42%
    18:00 +34°C° 0 mm 3 mps 741 mmHg 47%
    19:00 +32°C° 0 mm 2 mps 741 mmHg 52%
    20:00 +30°C° 0 mm 2 mps 741 mmHg 57%
    21:00 +30°C° 0 mm 1 mps 741 mmHg 58%
    22:00 +29°C° 0 mm 1 mps 741 mmHg 59%
    23:00 +29°C° 0 mm 1 mps 741 mmHg 61%

    Tomorrow, 19 September, Wednesday

    Time Temperature Precipitation Wind Pressure Humidity
    00:00 +28°C° 0 mm 1 mps 741 mmHg 61%
    01:00 +28°C° 0 mm 1 mps 741 mmHg 62%
    02:00 +28°C° 0 mm 1 mps 740 mmHg 62%
    03:00 +28°C° 0 mm 1 mps 740 mmHg 63%
    04:00 +27°C° 0 mm 1 mps 740 mmHg 64%
    05:00 +27°C° 0 mm 1 mps 740 mmHg 64%
    06:00 +29°C° 0 mm 2 mps 741 mmHg 60%
    07:00 +30°C° 0 mm 3 mps 741 mmHg 56%
    08:00 +31°C° 0 mm 3 mps 742 mmHg 52%
    09:00 +34°C° 0 mm 4 mps 742 mmHg 46%
    10:00 +37°C° 0 mm 4 mps 742 mmHg 41%
    11:00 +40°C° 0 mm 5 mps 743 mmHg 35%
    12:00 +40°C° 0 mm 4 mps 742 mmHg 36%
    13:00 +40°C° 0 mm 4 mps 741 mmHg 36%
    14:00 +38°C° 0 mm 4 mps 741 mmHg 36%
    15:00 +39°C° 0 mm 3 mps 740 mmHg 36%
    16:00 +39°C° 0 mm 3 mps 740 mmHg 36%
    17:00 +39°C° 0 mm 3 mps 739 mmHg 36%
    18:00 +37°C° 0 mm 2 mps 740 mmHg 40%
    19:00 +35°C° 0 mm 2 mps 740 mmHg 45%
    20:00 +32°C° 0 mm 1 mps 741 mmHg 49%
    21:00 +32°C° 0 mm 1 mps 741 mmHg 50%
    22:00 +31°C° 0 mm 1 mps 741 mmHg 52%
    23:00 +31°C° 0 mm 1 mps 742 mmHg 53%

    Day after tomorrow, 20 September, Thursday

    Time Temperature Precipitation Wind Pressure Humidity
    00:00 +31°C° 0 mm 1 mps 741 mmHg 53%
    01:00 +31°C° 0 mm 1 mps 741 mmHg 53%
    02:00 +31°C° 0 mm 1 mps 741 mmHg 54%
    03:00 +31°C° 0 mm 1 mps 741 mmHg 54%
    04:00 +30°C° 0 mm 1 mps 741 mmHg 55%
    05:00 +30°C° 0 mm 1 mps 741 mmHg 56%
    06:00 +31°C° 0 mm 1 mps 741 mmHg 53%
    07:00 +32°C° 0 mm 2 mps 742 mmHg 50%
    08:00 +34°C° 0 mm 2 mps 742 mmHg 47%
    09:00 +35°C° 0 mm 3 mps 743 mmHg 45%
    10:00 +36°C° 0 mm 3 mps 743 mmHg 42%
    11:00 +38°C° 0 mm 4 mps 743 mmHg 39%
    12:00 +40°C° 0 mm 4 mps 742 mmHg 36%
    13:00 +41°C° 0 mm 4 mps 741 mmHg 33%
    14:00 +42°C° 0 mm 4 mps 741 mmHg 30%
    15:00 +42°C° 0 mm 3 mps 740 mmHg 30%
    16:00 +42°C° 0 mm 3 mps 740 mmHg 31%
    17:00 +40°C° 0 mm 3 mps 740 mmHg 32%
    18:00 +38°C° 0 mm 2 mps 741 mmHg 36%
    19:00 +36°C° 0 mm 1 mps 741 mmHg 40%
    20:00 +34°C° 0 mm 1 mps 742 mmHg 44%
    21:00 +33°C° 0 mm 1 mps 742 mmHg 46%
    22:00 +33°C° 0 mm 1 mps 743 mmHg 48%
    23:00 +32°C° 0 mm 1 mps 743 mmHg 49%

    21 September, Friday

    Time Temperature Precipitation Wind Pressure Humidity
    00:00 +32°C° 0.1 mm 1 mps 743 mmHg 53%
    01:00 +31°C° 0.1 mm 1 mps 742 mmHg 57%
    02:00 +30°C° 0.1 mm 1 mps 742 mmHg 61%
    03:00 +29°C° 0.3 mm 1 mps 742 mmHg 66%
    04:00 +28°C° 0.3 mm 1 mps 742 mmHg 72%
    05:00 +28°C° 0.3 mm 1 mps 742 mmHg 78%
    06:00 +28°C° 0 mm 1 mps 743 mmHg 75%
    07:00 +29°C° 0 mm 1 mps 744 mmHg 73%
    08:00 +29°C° 0 mm 2 mps 744 mmHg 71%
    09:00 +33°C° 0 mm 1 mps 745 mmHg 59%
    10:00 +36°C° 0 mm 1 mps 745 mmHg 48%
    11:00 +41°C° 0 mm 1 mps 745 mmHg 36%
    12:00 +41°C° 0 mm 1 mps 744 mmHg 34%
    13:00 +41°C° 0 mm 1 mps 743 mmHg 32%
    14:00 +42°C° 0 mm 1 mps 742 mmHg 31%
    15:00 +41°C° 0 mm 1 mps 741 mmHg 31%
    16:00 +40°C° 0 mm 1 mps 741 mmHg 32%
    17:00 +39°C° 0 mm 1 mps 740 mmHg 33%
    18:00 +37°C° 0 mm 1 mps 741 mmHg 37%
    19:00 +33°C° 0 mm 0 mps 741 mmHg 41%
    20:00 +31°C° 0 mm 0 mps 741 mmHg 45%
    21:00 +31°C° 0 mm 0 mps 741 mmHg 46%
    22:00 +30°C° 0 mm 0 mps 742 mmHg 48%
    23:00 +29°C° 0 mm 0 mps 742 mmHg 50%

    22 September, Saturday

    Time Temperature Precipitation Wind Pressure Humidity
    00:00 +29°C° 0 mm 0 mps 742 mmHg 51%
    01:00 +28°C° 0 mm 0 mps 741 mmHg 53%
    02:00 +28°C° 0 mm 0 mps 741 mmHg 55%
    03:00 +27°C° 0 mm 0 mps 741 mmHg 57%
    04:00 +27°C° 0 mm 0 mps 741 mmHg 59%
    05:00 +27°C° 0 mm 0 mps 742 mmHg 61%
    06:00 +30°C° 0 mm 1 mps 742 mmHg 57%
    07:00 +31°C° 0 mm 1 mps 743 mmHg 53%
    08:00 +34°C° 0 mm 2 mps 744 mmHg 49%
    09:00 +36°C° 0 mm 2 mps 744 mmHg 43%
    10:00 +38°C° 0 mm 2 mps 744 mmHg 37%
    11:00 +40°C° 0 mm 2 mps 744 mmHg 32%
    12:00 +40°C° 0 mm 2 mps 743 mmHg 31%
    13:00 +41°C° 0 mm 2 mps 742 mmHg 30%
    14:00 +41°C° 0 mm 2 mps 740 mmHg 28%
    15:00 +41°C° 0 mm 2 mps 740 mmHg 29%
    16:00 +40°C° 0 mm 2 mps 739 mmHg 30%
    17:00 +40°C° 0 mm 2 mps 739 mmHg 31%
    18:00 +38°C° 0 mm 2 mps 739 mmHg 35%
    19:00 +35°C° 0 mm 1 mps 740 mmHg 39%
    20:00 +33°C° 0 mm 1 mps 740 mmHg 43%
    21:00 +33°C° 0 mm 1 mps 740 mmHg 45%
    22:00 +32°C° 0 mm 1 mps 740 mmHg 46%
    23:00 +32°C° 0 mm 1 mps 741 mmHg 48%

    23 September, Sunday

    Time Temperature Precipitation Wind Pressure Humidity
    00:00 +31°C° 0.1 mm 1 mps 741 mmHg 50%
    01:00 +30°C° 0.1 mm 1 mps 740 mmHg 53%
    02:00 +30°C° 0.1 mm 1 mps 740 mmHg 55%
    03:00 +29°C° 0 mm 1 mps 740 mmHg 57%
    04:00 +29°C° 0 mm 1 mps 741 mmHg 59%
    05:00 +29°C° 0 mm 1 mps 741 mmHg 61%
    06:00 +30°C° 0.1 mm 1 mps 742 mmHg 58%
    07:00 +31°C° 0.1 mm 2 mps 743 mmHg 55%
    08:00 +32°C° 0.1 mm 2 mps 743 mmHg 52%
    09:00 +36°C° 0 mm 3 mps 743 mmHg 45%
    10:00 +38°C° 0 mm 3 mps 743 mmHg 38%
    11:00 +40°C° 0 mm 3 mps 743 mmHg 32%
    12:00 +42°C° 0 mm 3 mps 742 mmHg 29%
    13:00 +43°C° 0 mm 3 mps 741 mmHg 26%
    14:00 +44°C° 0 mm 3 mps 740 mmHg 24%
    15:00 +44°C° 0 mm 3 mps 740 mmHg 25%
    16:00 +43°C° 0 mm 3 mps 740 mmHg 26%
    17:00 +41°C° 0 mm 2 mps 739 mmHg 27%
    18:00 +39°C° 0 mm 2 mps 740 mmHg 30%
    19:00 +37°C° 0 mm 2 mps 740 mmHg 34%
    20:00 +35°C° 0 mm 1 mps 741 mmHg 37%
    21:00 +34°C° 0 mm 1 mps 741 mmHg 40%
    22:00 +33°C° 0 mm 1 mps 741 mmHg 42%
    23:00 +32°C° 0 mm 1 mps 742 mmHg 45%
    Show more